When you browse on this site, cookies collect data to enhance your experience and personalize the content and advertising you see.
Visit our Privacy Policy to learn more. By continuing to use the site, you agree to this use of cookies and data.
  • In Norway
  • List of Countries
  • For 7 days
  • Water Temperature
  • Satellite Maps
  • Weather Map
  • Weather Widgets
  • user-avatar
    Login

    Hourly Weather Albany

    Today, 23 January, Wednesday

    Time Temperature Precipitation Wind Pressure Humidity
    00:00 +20°C° 0.1 mm 5 mps 748 mmHg 90%
    01:00 +20°C° 0.1 mm 5 mps 747 mmHg 91%
    02:00 +21°C° 0 mm 6 mps 746 mmHg 92%
    03:00 +21°C° 0.1 mm 6 mps 746 mmHg 91%
    04:00 +21°C° 0.1 mm 6 mps 746 mmHg 91%
    05:00 +21°C° 0.1 mm 6 mps 746 mmHg 90%
    06:00 +21°C° 0.7 mm 6 mps 746 mmHg 84%
    07:00 +21°C° 0.7 mm 6 mps 746 mmHg 79%
    08:00 +21°C° 0.7 mm 6 mps 746 mmHg 73%
    09:00 +22°C° 0 mm 7 mps 745 mmHg 61%
    10:00 +23°C° 0 mm 7 mps 745 mmHg 48%
    11:00 +24°C° 0 mm 7 mps 744 mmHg 36%
    12:00 +24°C° 0 mm 7 mps 744 mmHg 36%
    13:00 +24°C° 0 mm 8 mps 743 mmHg 37%
    14:00 +24°C° 0 mm 8 mps 743 mmHg 37%
    15:00 +24°C° 0 mm 8 mps 742 mmHg 38%
    16:00 +26°C° 0 mm 8 mps 742 mmHg 40%
    17:00 +27°C° 0 mm 8 mps 742 mmHg 41%
    18:00 +24°C° 0 mm 8 mps 742 mmHg 46%
    19:00 +22°C° 0 mm 7 mps 743 mmHg 50%
    20:00 +21°C° 0 mm 7 mps 743 mmHg 55%
    21:00 +20°C° 0.1 mm 7 mps 744 mmHg 63%
    22:00 +20°C° 0.1 mm 7 mps 744 mmHg 72%
    23:00 +18°C° 0.1 mm 7 mps 745 mmHg 80%

    Tomorrow, 24 January, Thursday

    Time Temperature Precipitation Wind Pressure Humidity
    00:00 +18°C° 0.1 mm 8 mps 746 mmHg 80%
    01:00 +18°C° 0.1 mm 9 mps 746 mmHg 80%
    02:00 +18°C° 0.1 mm 10 mps 747 mmHg 80%
    03:00 +18°C° 0.1 mm 10 mps 748 mmHg 79%
    04:00 +18°C° 0.1 mm 10 mps 748 mmHg 78%
    05:00 +17°C° 0.1 mm 10 mps 749 mmHg 77%
    06:00 +17°C° 0.1 mm 10 mps 750 mmHg 76%
    07:00 +17°C° 0.1 mm 10 mps 751 mmHg 76%
    08:00 +17°C° 0.1 mm 10 mps 752 mmHg 76%
    09:00 +17°C° 0.1 mm 9 mps 753 mmHg 76%
    10:00 +17°C° 0.1 mm 8 mps 754 mmHg 76%
    11:00 +17°C° 0.1 mm 8 mps 754 mmHg 76%
    12:00 +16°C° 0.1 mm 7 mps 755 mmHg 75%
    13:00 +16°C° 0.1 mm 7 mps 755 mmHg 74%
    14:00 +16°C° 0.1 mm 7 mps 756 mmHg 73%
    15:00 +16°C° 0 mm 7 mps 756 mmHg 70%
    16:00 +16°C° 0 mm 7 mps 756 mmHg 66%
    17:00 +16°C° 0 mm 7 mps 756 mmHg 63%
    18:00 +16°C° 0 mm 6 mps 757 mmHg 65%
    19:00 +15°C° 0 mm 5 mps 757 mmHg 67%
    20:00 +15°C° 0 mm 5 mps 758 mmHg 70%
    21:00 +15°C° 0.1 mm 4 mps 758 mmHg 69%
    22:00 +15°C° 0.1 mm 4 mps 758 mmHg 69%
    23:00 +16°C° 0.1 mm 3 mps 759 mmHg 68%

    Day after tomorrow, 25 January, Friday

    Time Temperature Precipitation Wind Pressure Humidity
    00:00 +14°C° 0 mm 3 mps 758 mmHg 70%
    01:00 +15°C° 0 mm 2 mps 758 mmHg 71%
    02:00 +15°C° 0 mm 2 mps 758 mmHg 72%
    03:00 +15°C° 0 mm 2 mps 758 mmHg 72%
    04:00 +14°C° 0 mm 2 mps 758 mmHg 73%
    05:00 +14°C° 0 mm 2 mps 758 mmHg 73%
    06:00 +15°C° 0 mm 2 mps 758 mmHg 68%
    07:00 +16°C° 0 mm 2 mps 759 mmHg 63%
    08:00 +17°C° 0 mm 2 mps 759 mmHg 58%
    09:00 +19°C° 0 mm 2 mps 759 mmHg 53%
    10:00 +20°C° 0 mm 2 mps 759 mmHg 48%
    11:00 +21°C° 0 mm 2 mps 759 mmHg 43%
    12:00 +22°C° 0 mm 3 mps 758 mmHg 43%
    13:00 +22°C° 0 mm 3 mps 758 mmHg 43%
    14:00 +22°C° 0 mm 4 mps 758 mmHg 43%
    15:00 +22°C° 0 mm 4 mps 757 mmHg 46%
    16:00 +21°C° 0 mm 4 mps 757 mmHg 49%
    17:00 +20°C° 0 mm 4 mps 757 mmHg 53%
    18:00 +19°C° 0 mm 4 mps 758 mmHg 57%
    19:00 +18°C° 0 mm 3 mps 758 mmHg 62%
    20:00 +17°C° 0 mm 3 mps 759 mmHg 67%
    21:00 +17°C° 0 mm 3 mps 759 mmHg 68%
    22:00 +17°C° 0 mm 3 mps 760 mmHg 70%
    23:00 +17°C° 0 mm 3 mps 760 mmHg 72%

    26 January, Saturday

    Time Temperature Precipitation Wind Pressure Humidity
    00:00 +16°C° 0 mm 3 mps 760 mmHg 74%
    01:00 +16°C° 0 mm 3 mps 760 mmHg 76%
    02:00 +14°C° 0 mm 3 mps 759 mmHg 78%
    03:00 +14°C° 0 mm 3 mps 759 mmHg 79%
    04:00 +14°C° 0 mm 3 mps 760 mmHg 79%
    05:00 +13°C° 0 mm 3 mps 760 mmHg 79%
    06:00 +16°C° 0 mm 3 mps 760 mmHg 74%
    07:00 +17°C° 0 mm 4 mps 761 mmHg 68%
    08:00 +18°C° 0 mm 4 mps 761 mmHg 62%
    09:00 +19°C° 0 mm 4 mps 761 mmHg 60%
    10:00 +19°C° 0 mm 4 mps 761 mmHg 57%
    11:00 +20°C° 0 mm 4 mps 761 mmHg 55%
    12:00 +20°C° 0 mm 4 mps 761 mmHg 53%
    13:00 +21°C° 0 mm 5 mps 761 mmHg 51%
    14:00 +21°C° 0 mm 5 mps 760 mmHg 49%
    15:00 +21°C° 0 mm 5 mps 760 mmHg 50%
    16:00 +21°C° 0 mm 4 mps 760 mmHg 52%
    17:00 +20°C° 0 mm 4 mps 760 mmHg 53%
    18:00 +19°C° 0 mm 4 mps 761 mmHg 60%
    19:00 +17°C° 0 mm 3 mps 761 mmHg 66%
    20:00 +16°C° 0 mm 2 mps 762 mmHg 73%
    21:00 +16°C° 0 mm 2 mps 762 mmHg 74%
    22:00 +15°C° 0 mm 2 mps 762 mmHg 76%
    23:00 +15°C° 0 mm 2 mps 762 mmHg 78%

    27 January, Sunday

    Time Temperature Precipitation Wind Pressure Humidity
    00:00 +14°C° 0 mm 1 mps 762 mmHg 79%
    01:00 +14°C° 0 mm 1 mps 761 mmHg 80%
    02:00 +13°C° 0 mm 0 mps 761 mmHg 82%
    03:00 +12°C° 0 mm 0 mps 761 mmHg 83%
    04:00 +12°C° 0 mm 0 mps 761 mmHg 84%
    05:00 +12°C° 0 mm 0 mps 760 mmHg 85%
    06:00 +14°C° 0 mm 0 mps 761 mmHg 75%
    07:00 +16°C° 0 mm 0 mps 761 mmHg 65%
    08:00 +18°C° 0 mm 0 mps 761 mmHg 56%
    09:00 +22°C° 0 mm 1 mps 761 mmHg 48%
    10:00 +25°C° 0 mm 1 mps 761 mmHg 41%
    11:00 +27°C° 0 mm 1 mps 761 mmHg 34%
    12:00 +27°C° 0 mm 2 mps 760 mmHg 34%
    13:00 +27°C° 0 mm 3 mps 759 mmHg 34%
    14:00 +28°C° 0 mm 4 mps 759 mmHg 34%
    15:00 +26°C° 0 mm 4 mps 759 mmHg 38%
    16:00 +25°C° 0 mm 4 mps 758 mmHg 42%
    17:00 +23°C° 0 mm 4 mps 758 mmHg 46%
    18:00 +21°C° 0 mm 3 mps 758 mmHg 52%
    19:00 +19°C° 0 mm 2 mps 759 mmHg 59%
    20:00 +18°C° 0 mm 2 mps 759 mmHg 66%
    21:00 +18°C° 0 mm 1 mps 759 mmHg 70%
    22:00 +16°C° 0 mm 1 mps 759 mmHg 73%
    23:00 +15°C° 0 mm 0 mps 759 mmHg 77%

    28 January, Monday

    Time Temperature Precipitation Wind Pressure Humidity
    00:00 +14°C° 0 mm 0 mps 758 mmHg 79%
    01:00 +14°C° 0 mm 0 mps 758 mmHg 81%
    02:00 +14°C° 0 mm 0 mps 758 mmHg 82%
    03:00 +14°C° 0 mm 1 mps 757 mmHg 83%
    04:00 +14°C° 0 mm 1 mps 757 mmHg 83%
    05:00 +14°C° 0 mm 1 mps 757 mmHg 84%
    06:00 +16°C° 0 mm 1 mps 757 mmHg 72%
    07:00 +20°C° 0 mm 1 mps 757 mmHg 61%
    08:00 +22°C° 0 mm 1 mps 758 mmHg 50%
    09:00 +25°C° 0 mm 1 mps 757 mmHg 43%
    10:00 +28°C° 0 mm 1 mps 757 mmHg 36%
    11:00 +30°C° 0 mm 1 mps 757 mmHg 29%
    12:00 +30°C° 0 mm 3 mps 756 mmHg 32%
    13:00 +29°C° 0 mm 4 mps 756 mmHg 34%
    14:00 +29°C° 0 mm 5 mps 755 mmHg 37%
    15:00 +28°C° 0 mm 4 mps 755 mmHg 40%
    16:00 +26°C° 0 mm 4 mps 755 mmHg 42%
    17:00 +25°C° 0 mm 4 mps 755 mmHg 45%
    18:00 +22°C° 0 mm 3 mps 755 mmHg 55%
    19:00 +20°C° 0 mm 3 mps 755 mmHg 65%
    20:00 +19°C° 0 mm 3 mps 756 mmHg 76%
    21:00 +18°C° 0 mm 2 mps 756 mmHg 79%
    22:00 +18°C° 0 mm 2 mps 756 mmHg 83%
    23:00 +18°C° 0 mm 1 mps 756 mmHg 87%
    Show more